Waarnemingen

Advertentie
Mijn weer
Cap Bear, Frankrijk (7749): temperatuur & dauwpunt: 17.07.2017 10:00:00 - 23.07.2017 10:00:00 (CEST)Cap Bear, Frankrijk (7749): windsnelheid & windstoten: 17.07.2017 10:00:00 - 23.07.2017 10:00:00 (CEST)Cap Bear, Frankrijk (7749): windrichting: 17.07.2017 10:00:00 - 23.07.2017 10:00:00 (CEST)Cap Bear, Frankrijk (7749): luchtdruk: 17.07.2017 10:00:00 - 23.07.2017 10:00:00 (CEST)Cap Bear, Frankrijk (7749): zicht: 17.07.2017 10:00:00 - 23.07.2017 10:00:00 (CEST)Cap Bear, Frankrijk (7749): neerslag: 17.07.2017 10:00:00 - 23.07.2017 10:00:00 (CEST)
Datum & Tijd tt [°C] td [°C] ff [km/u] ff [kn] fx [km/u] fx [kn] dd ppp [hPa] vv [km] rr [mm]
23.07.2017 10:00:00 23,3 15,9 39 21 53 28 NW 1018,8 - 0,0
23.07.2017 09:00:00 22,8 15,9 35 19 50 27 NW 1018,7 - 0,0
23.07.2017 08:00:00 22,5 15,8 32 17 48 26 NW 1018,7 20 0,0
23.07.2017 07:00:00 22,5 15,8 31 17 54 29 NW 1018,6 - 0,0
23.07.2017 06:00:00 22,5 15,6 33 18 49 26 NW 1018,2 - 0,0
23.07.2017 05:00:00 22,6 15,7 34 19 49 27 NW 1017,6 20 0,0
23.07.2017 04:00:00 23,2 16,0 33 18 48 26 NW 1017,7 - 0,0
23.07.2017 03:00:00 24,1 15,8 32 17 49 26 NW 1017,9 - 0,0
23.07.2017 02:00:00 24,6 15,5 30 16 49 27 NW 1017,8 - 0,0
23.07.2017 01:00:00 24,5 16,0 30 16 46 25 NW 1017,4 - 0,0
23.07.2017 00:00:00 24,1 16,6 33 18 50 27 NW 1017,0 - 0,0
22.07.2017 23:00:00 23,2 17,0 34 18 46 25 NW 1016,7 - 0,0
22.07.2017 22:00:00 22,1 21,4 28 15 36 20 N 1015,9 - 0,0
22.07.2017 21:00:00 22,7 21,5 17 9 27 15 NNW 1014,6 - 0,0
22.07.2017 20:00:00 23,2 21,1 23 12 27 14 NNW 1013,8 15 0,0
22.07.2017 19:00:00 24,3 21,0 17 9 23 13 NW 1013,1 - 0,0
22.07.2017 18:00:00 25,1 20,8 16 8 41 22 NNW 1013,1 - 0,0
22.07.2017 17:00:00 23,7 21,2 34 19 42 23 ZZO 1013,0 18 0,0
22.07.2017 16:00:00 23,7 20,2 34 19 48 26 ZZO 1013,1 - 0,0
22.07.2017 15:00:00 22,7 19,7 42 23 50 27 ZO 1013,3 - 0,0
22.07.2017 14:00:00 22,6 19,2 32 17 37 20 ZZO 1014,3 20 0,0
22.07.2017 13:00:00 22,7 19,7 25 14 34 19 ZO 1014,2 - 0,0
22.07.2017 12:00:00 23,3 19,0 17 9 24 13 ZO 1014,5 - 0,0
22.07.2017 11:00:00 24,1 19,0 7 4 16 8 OZO 1014,2 20 0,0
22.07.2017 10:00:00 24,2 17,7 6 3 13 7 ZO 1014,4 - 0,0
22.07.2017 09:00:00 23,4 18,5 4 2 11 6 ZO 1014,3 - 0,0
22.07.2017 08:00:00 23,4 17,6 4 2 21 11 NW 1013,7 - 0,0
22.07.2017 07:00:00 21,4 17,0 17 9 19 11 NW 1013,6 - 0,0
22.07.2017 06:00:00 21,3 16,7 10 6 20 11 NW 1013,6 - 0,0
22.07.2017 05:00:00 22,1 16,8 19 10 25 13 WNW 1013,2 20 0,0
22.07.2017 04:00:00 22,5 17,0 19 10 27 15 NW 1013,1 - 0,0
22.07.2017 03:00:00 23,1 17,1 21 12 31 17 NW 1013,3 - 0,0
22.07.2017 02:00:00 23,2 17,2 22 12 37 20 NW 1012,9 - 0,0
22.07.2017 01:00:00 21,1 18,5 19 10 25 14 NNW 1013,3 - 0,0
22.07.2017 00:00:00 21,3 18,3 16 9 24 13 NW 1012,7 - 0,0
21.07.2017 23:00:00 21,4 19,1 19 10 24 13 NW 1012,4 - 0,0
21.07.2017 22:00:00 21,5 19,1 21 11 28 15 WNW 1011,6 - 0,0
21.07.2017 21:00:00 23,1 18,4 25 14 29 16 WNW 1010,8 - 0,0
21.07.2017 20:00:00 21,5 18,9 22 12 36 19 Z 1010,4 20 0,0
21.07.2017 19:00:00 21,9 18,9 32 17 37 20 ZZO 1010,0 - 0,0
21.07.2017 18:00:00 22,4 17,7 21 12 34 19 ZZO 1010,4 - 0,0
21.07.2017 17:00:00 23,1 18,0 31 17 34 18 ZZO 1010,7 20 0,0
21.07.2017 16:00:00 23,5 18,6 24 13 29 15 ZZO 1011,1 - 0,0
21.07.2017 15:00:00 24,2 17,2 8 4 12 6 Z 1011,7 - 0,0
21.07.2017 14:00:00 23,1 17,3 7 4 36 20 N 1012,4 20 0,0
21.07.2017 13:00:00 22,9 17,1 17 9 27 15 N 1013,0 - 0,0
21.07.2017 12:00:00 23,4 18,1 14 8 19 10 N 1013,1 - 0,0
21.07.2017 11:00:00 25,1 16,3 11 6 21 11 N 1012,1 - 0,0
21.07.2017 10:00:00 24,9 16,3 17 9 29 16 NNW 1011,7 - 0,0
21.07.2017 09:00:00 24,0 16,3 22 12 35 19 NW 1011,7 - 0,0
21.07.2017 08:00:00 23,1 15,7 26 14 36 19 NW 1011,6 25 0,0
21.07.2017 07:00:00 22,1 15,2 30 16 48 26 WNW 1011,4 - 0,0
21.07.2017 06:00:00 21,7 15,5 30 16 49 26 NW 1011,4 - 0,0
21.07.2017 05:00:00 21,9 15,5 36 19 52 28 WNW 1011,2 20 0,0
21.07.2017 04:00:00 21,7 16,0 42 23 56 30 NW 1011,4 - 0,0
21.07.2017 03:00:00 22,1 15,9 36 20 55 30 NW 1011,6 - 0,0
21.07.2017 02:00:00 22,1 15,9 38 20 53 29 NW 1012,0 - 0,0
21.07.2017 01:00:00 22,1 15,9 36 19 65 35 NW 1012,5 - 0,0
21.07.2017 00:00:00 22,2 16,2 39 21 65 35 NW 1012,6 - 0,0
20.07.2017 23:00:00 22,5 16,3 36 20 57 31 NW 1013,0 - 0,0
20.07.2017 22:00:00 22,9 16,4 39 21 57 31 NW 1012,6 - 0,0
20.07.2017 21:00:00 23,2 17,4 49 27 63 34 NW 1012,5 - 0,0
20.07.2017 20:00:00 24,1 17,3 29 15 48 26 NW 1012,4 25 0,0
20.07.2017 19:00:00 23,9 17,6 26 14 35 19 NNW 1012,4 - 0,0
20.07.2017 18:00:00 23,6 17,6 8 5 15 8 O 1013,0 - 0,0
20.07.2017 17:00:00 23,3 18,4 7 4 13 7 ZZO 1013,6 - 0,0
20.07.2017 16:00:00 24,6 19,2 7 4 14 7 N 1013,6 - 0,0
20.07.2017 15:00:00 23,6 18,9 12 7 17 9 NNO 1013,9 - 0,0
20.07.2017 14:00:00 23,2 18,5 9 5 16 9 NNW 1014,3 25 0,0
20.07.2017 13:00:00 22,1 18,1 13 7 22 12 N 1014,8 - 0,0
20.07.2017 12:00:00 21,4 17,6 19 11 26 14 N 1014,8 - 0,0
20.07.2017 11:00:00 21,7 18,3 24 13 31 17 N 1015,0 - 0,0
20.07.2017 10:00:00 21,3 18,7 25 13 38 20 NNW 1015,1 - 0,0
20.07.2017 09:00:00 20,5 18,4 28 15 42 23 NW 1014,9 - 0,6
20.07.2017 08:00:00 20,5 17,9 30 16 46 25 NW 1014,8 - 0,0
20.07.2017 07:00:00 20,5 17,3 35 19 53 29 NW 1014,6 - 0,0
20.07.2017 06:00:00 20,3 16,9 37 20 58 31 NW 1014,3 - 0,0
20.07.2017 05:00:00 20,2 17,6 40 22 77 42 NW 1014,6 18 1,6
20.07.2017 04:00:00 19,9 18,2 45 25 73 39 NW 1014,7 - 0,8
20.07.2017 03:00:00 21,7 19,6 19 10 29 16 NW 1014,0 - 0,0
20.07.2017 02:00:00 22,2 19,7 16 9 41 22 NW 1013,6 18 0,0
20.07.2017 01:00:00 22,1 20,0 29 16 42 23 Z 1012,7 - 0,0
20.07.2017 00:00:00 21,3 18,9 27 15 33 18 ZZO 1012,3 - 0,0
19.07.2017 23:00:00 21,2 18,8 27 15 50 27 ZZO 1012,1 - 0,0
19.07.2017 22:00:00 23,5 19,2 40 22 68 37 Z 1011,3 - 0,0
19.07.2017 21:00:00 22,9 18,2 56 30 74 40 Z 1010,5 - 0,0
19.07.2017 20:00:00 21,0 19,5 65 35 74 40 ZZO 1010,6 15 0,0
19.07.2017 19:00:00 23,5 19,0 50 27 61 33 ZZO 1011,4 - 0,0
19.07.2017 18:00:00 24,6 17,3 49 27 68 37 ZZO 1011,7 - 0,0
19.07.2017 17:00:00 22,8 18,6 57 31 77 42 ZZO 1012,0 16 0,0
19.07.2017 16:00:00 22,8 19,0 63 34 71 38 ZZO 1012,1 - 0,0
19.07.2017 15:00:00 24,0 18,9 51 28 64 34 ZZO 1013,0 - 0,0
19.07.2017 14:00:00 22,8 19,4 51 28 55 30 ZZO 1013,3 15 0,0
19.07.2017 13:00:00 23,1 20,1 41 22 49 26 ZZO 1013,8 - 0,0
19.07.2017 12:00:00 24,1 20,4 20 11 47 25 ZZW 1014,5 - 0,0
19.07.2017 11:00:00 24,1 20,4 33 18 48 26 ZZO 1013,8 15 0,0
19.07.2017 10:00:00 25,3 19,2 23 12 45 24 ZZW 1013,8 - 0,0
19.07.2017 09:00:00 25,4 19,8 21 11 34 18 Z 1014,6 - 0,0
19.07.2017 08:00:00 22,5 19,3 9 5 11 6 ZZO 1014,8 16 0,0
19.07.2017 07:00:00 22,1 19,8 4 2 7 4 ZZO 1014,4 - 0,0
19.07.2017 06:00:00 22,5 19,9 4 2 15 8 NO 1014,3 - 0,0
19.07.2017 05:00:00 23,0 20,0 10 5 16 9 N 1014,1 18 0,0
19.07.2017 04:00:00 23,1 19,7 7 4 22 12 ZZW 1014,2 - 0,0
19.07.2017 03:00:00 22,7 20,2 18 10 58 31 NW 1014,0 - 0,0
19.07.2017 02:00:00 24,1 19,2 35 19 59 32 Z 1013,2 - 0,0
19.07.2017 01:00:00 24,0 19,7 29 16 61 33 Z 1013,5 - 0,0
19.07.2017 00:00:00 24,2 19,9 29 16 49 26 Z 1013,5 - 0,0
18.07.2017 23:00:00 23,7 20,0 38 20 62 34 ZZO 1013,8 - 0,0
18.07.2017 22:00:00 22,7 19,5 48 26 55 30 Z 1013,3 - 0,0
18.07.2017 21:00:00 25,2 20,0 37 20 59 32 Z 1013,9 - 0,0
18.07.2017 20:00:00 24,5 20,0 38 21 74 40 Z 1013,7 12 0,0
18.07.2017 19:00:00 22,5 20,2 61 33 73 39 ZZO 1013,0 - 0,0
18.07.2017 18:00:00 22,5 21,0 62 33 78 42 ZZO 1013,5 - 0,0
18.07.2017 17:00:00 22,5 20,0 67 36 77 41 ZZO 1013,6 - 0,0
18.07.2017 16:00:00 23,9 20,6 72 39 80 43 Z 1013,2 - 0,0
18.07.2017 15:00:00 23,8 20,7 73 39 78 42 ZZO 1013,3 - 0,0
18.07.2017 14:00:00 24,1 21,2 67 36 79 42 ZZO 1013,9 - 0,0
18.07.2017 13:00:00 24,1 21,4 70 38 75 41 ZZO 1014,2 - 0,0
18.07.2017 12:00:00 24,5 20,8 60 32 69 37 ZZO 1014,5 - 0,0
18.07.2017 11:00:00 25,6 20,4 48 26 59 32 ZZO 1014,7 20 0,0
18.07.2017 10:00:00 26,4 20,3 28 15 46 25 Z 1015,4 - 0,0
18.07.2017 09:00:00 25,3 19,4 27 15 39 21 Z 1015,4 - 0,0
18.07.2017 08:00:00 24,1 19,0 22 12 38 21 Z 1015,7 - 0,0
18.07.2017 07:00:00 22,7 17,8 12 7 29 16 Z 1015,4 - 0,0
18.07.2017 06:00:00 22,7 18,0 14 8 34 18 Z 1015,4 - 0,0
18.07.2017 05:00:00 22,9 17,8 21 11 45 25 Z 1015,2 20 0,0
18.07.2017 04:00:00 23,2 17,4 27 15 48 26 ZZW 1015,5 - 0,0
18.07.2017 03:00:00 23,4 16,4 26 14 70 38 ZZW 1015,9 - 0,0
18.07.2017 02:00:00 24,0 15,5 16 9 53 29 Z 1015,7 - 0,0
18.07.2017 01:00:00 24,2 15,1 37 20 65 35 Z 1015,9 - 0,0
18.07.2017 00:00:00 24,6 15,8 48 26 63 34 Z 1016,1 - 0,0
17.07.2017 23:00:00 24,3 16,0 35 19 44 24 Z 1017,0 - 0,0
17.07.2017 22:00:00 24,9 16,6 32 17 54 29 Z 1017,3 - 0,0
17.07.2017 21:00:00 25,4 15,4 35 19 60 33 Z 1016,1 - 0,0
17.07.2017 20:00:00 23,6 19,1 51 28 74 40 ZZO 1015,6 - 0,0
17.07.2017 19:00:00 22,9 21,0 54 29 60 32 ZZO 1015,9 - 0,0
17.07.2017 18:00:00 23,4 20,5 50 27 61 33 ZZO 1017,0 - 0,0
17.07.2017 17:00:00 23,9 20,4 56 30 63 34 ZZO 1017,4 20 0,0
17.07.2017 16:00:00 24,0 20,1 54 29 62 33 ZZO 1017,1 - 0,0
17.07.2017 15:00:00 24,1 19,2 52 28 59 32 ZZO 1017,5 - 0,0
17.07.2017 14:00:00 24,2 17,9 53 29 61 33 ZZO 1018,2 20 0,0
17.07.2017 13:00:00 24,4 17,4 55 30 62 33 ZZO 1018,3 - 0,0
17.07.2017 12:00:00 24,4 18,3 51 28 56 30 ZZO 1018,6 - 0,0
17.07.2017 11:00:00 23,3 20,6 42 23 48 26 ZZO 1019,4 20 0,0
17.07.2017 10:00:00 22,7 21,2 40 22 46 25 ZO 1019,7 - 0,0

tt = temperatuur
td = dauwpunt
ff = windsnelheid
fx = windstoten
dd = windrichting
ppp = luchtdruk
vv = zicht
rr = neerslag

Weerstations in de omgeving